Location: Maiden
(35.5760°N, 81.2120°W)
Time: 03:24:40
(UTC-04:00)

BREEZE M DEB (TANK) - Pass Details

Date: 02 August 2020
Orbit: 285 x 14545 km, 49.5° (Epoch: 11 August)

Event Time Altitude Azimuth Distance (km) Brightness Sun altitude
Rises 21:43:35 0° 294° (WNW) 2,261 7.7 -14.5°
Reaches altitude 10° 21:46:07 10° 266° (W) 1,142 5.2 -14.9°
Maximum altitude 21:47:26 15° 225° (SW) 905 4.1 -15.1°
Enters shadow 21:48:07 13° 203° (SSW) 985 4.0 -15.2°
